GFSNW_sfc_30mbdewp_222.txt.gz
Dewpoint
40 40 40 40 40 39 39 28 25 33 34 26 27 23 19 21 20 18 11 8 11 12 15 20 17 14 30 29 30 29 32 30 23 22 35 35 34 31 31 27 26 27 28 25
40 41 41 40 41 40 32 28 25 33 35 21 19 17 13 11 14 16 17 14 14 16 18 20 21 26 33 26 27 25 30 28 20 20 31 32 31 32 32 31 30 26 23 25
41 41 40 41 40 39 35 30 24 22 30 26 22 20 22 12 13 12 20 17 15 17 19 16 16 15 31 28 22 27 30 28 25 20 25 28 28 31 33 30 26 27 28 27
39 39 40 41 40 39 35 33 26 22 20 21 17 16 17 14 11 10 11 22 22 26 21 19 16 21 28 27 26 31 28 24 24 23 20 20 21 25 27 27 28 26 28 30
41 41 41 40 40 39 35 30 27 27 24 19 16 18 20 17 12 15 15 12 14 24 23 23 22 26 19 17 18 15 23 23 22 17 17 17 24 21 15 22 25 25 24 22
40 40 41 41 41 39 32 33 32 32 23 19 18 20 20 20 15 14 11 14 19 18 20 22 20 20 14 13 12 11 12 14 13 11 10 16 12 16 15 13 14 17 15 17
41 41 41 41 41 40 36 35 35 30 21 20 17 19 22 24 16 14 16 13 13 16 20 23 21 15 12 10 9 9 14 17 14 10 9 5 5 13 10 11 10 7 5 7
41 41 41 41 41 40 36 39 35 31 22 20 19 18 17 18 17 16 15 15 13 17 19 18 16 9 6 7 6 5 6 12 15 13 7 5 4 15 10 7 9 12 10 17
39 40 40 41 41 41 37 34 40 34 28 20 21 22 20 19 20 20 16 18 20 22 20 19 12 4 2 5 2 12 11 10 15 12 11 4 17 14 11 6 11 17 16 16
39 39 39 40 41 41 38 35 39 36 29 25 24 22 25 23 22 21 26 24 25 24 20 16 12 10 8 8 5 2 13 16 13 13 12 9 20 21 14 3 20 20 18 19
38 38 38 39 40 41 38 33 38 34 31 27 27 27 25 25 24 23 25 23 27 24 22 22 21 17 15 14 10 8 14 15 17 19 13 13 24 19 19 24 22 20 18 18
38 38 38 38 38 40 40 35 37 37 34 28 30 31 32 30 29 27 26 25 26 29 24 22 21 19 22 20 13 20 11 14 16 17 21 27 21 23 20 19 18 18 19 19
37 37 37 37 38 38 40 34 35 36 34 28 26 27 26 30 31 30 27 26 30 31 32 28 25 24 26 18 21 26 22 29 20 19 27 30 21 18 19 20 20 20 19 18
37 37 37 37 37 38 39 34 34 33 33 28 23 26 26 29 31 31 30 29 30 32 31 29 24 21 21 12 10 9 20 20 20 21 26 30 23 24 21 20 20 19 20 20
36 36 36 37 38 37 38 35 37 34 31 26 25 26 27 27 29 29 30 29 29 28 28 25 22 21 15 12 8 9 8 8 10 17 23 18 17 20 19 19 20 20 22 22
36 36 36 37 37 36 35 34 33 31 31 31 22 21 21 24 28 28 27 29 27 27 27 22 22 23 19 12 7 8 11 8 13 14 16 15 15 18 18 18 20 20 20 20
36 35 36 37 35 34 31 31 34 32 30 30 23 19 22 23 23 28 28 26 25 26 26 23 22 21 22 15 9 16 9 10 12 16 18 15 17 16 17 18 20 20 20 21
35 36 36 36 39 38 32 34 36 32 28 28 24 15 15 23 20 24 28 29 29 29 26 22 18 17 19 14 13 14 14 19 15 16 18 17 18 18 18 19 20 21 22 23
36 36 36 35 33 31 35 34 33 31 31 26 21 16 17 19 19 24 26 27 22 23 21 17 16 13 10 17 19 20 21 22 28 19 19 19 20 19 19 20 22 23 24 24
37 34 32 31 32 30 33 33 30 32 30 29 23 19 20 20 22 24 22 24 20 14 12 15 9 9 23 27 27 24 23 22 21 21 21 21 21 21 20 22 23 24 25 26
31 27 24 28 30 25 28 27 24 24 21 22 22 20 20 24 19 17 17 18 15 11 10 11 6 12 29 28 30 25 24 22 22 22 21 22 22 21 21 22 23 24 26 27
32 29 25 25 23 22 22 19 18 16 11 18 16 21 20 15 20 18 19 16 12 8 15 15 11 23 24 27 28 25 24 24 24 22 21 22 22 22 24 24 25 26 27 27
33 29 28 26 23 21 17 14 13 13 13 15 15 14 19 16 21 22 19 18 14 16 16 12 15 24 24 27 26 26 25 25 25 23 22 23 24 27 27 27 28 27 26 27
24 22 19 19 18 17 16 11 8 14 17 17 17 16 21 23 22 20 18 15 15 12 8 8 22 24 25 26 27 27 27 28 28 27 26 27 29 28 28 28 29 30 28 27
20 19 17 17 16 19 17 17 16 17 16 16 19 19 18 19 19 19 15 12 11 8 6 21 25 23 23 25 26 27 28 30 29 29 28 28 28 29 29 30 30 31 28 28
20 17 18 21 21 25 28 25 22 19 18 20 20 16 16 16 14 12 12 8 5 8 23 28 27 25 26 27 27 27 28 27 28 29 29 30 29 30 29 29 29 28 29 27
17 17 19 22 23 25 29 28 24 21 21 22 16 16 14 14 12 10 10 11 19 24 27 27 26 27 25 26 26 26 25 24 25 27 27 27 28 28 28 27 28 28 30 29

GFSNW_sfc_30mbdewp_225.txt.gz
Dewpoint
40 40 40 40 41 41 40 36 25 36 36 28 26 23 21 20 19 15 20 17 17 16 18 17 20 18 23 31 26 25 30 29 24 25 35 36 34 31 31 25 23 27 27 23
41 41 41 42 41 41 36 30 28 36 35 22 22 23 21 20 17 14 13 15 22 23 19 16 21 20 22 31 32 24 27 26 21 21 30 30 30 32 31 31 30 26 23 24
41 40 40 41 41 40 37 31 24 27 31 27 22 20 18 18 19 16 14 15 20 22 20 20 19 21 26 30 33 31 31 28 24 19 23 23 22 30 32 29 26 24 26 27
39 39 40 41 40 39 38 33 27 26 21 23 23 20 20 19 18 23 19 16 15 19 19 22 19 22 23 26 32 24 26 20 21 19 20 21 21 24 29 26 28 25 28 29
41 41 41 40 40 39 35 28 29 29 27 24 21 21 20 22 20 22 19 14 15 18 18 20 22 24 21 23 18 15 19 15 16 11 15 16 19 19 14 20 26 26 26 26
40 41 42 41 41 40 34 35 34 31 25 23 21 20 19 19 21 21 18 16 16 14 17 21 23 23 24 24 22 15 13 14 15 10 11 11 8 15 16 15 20 25 21 22
42 42 42 41 41 40 38 36 35 29 21 22 22 22 23 21 21 19 19 17 16 16 18 22 22 21 20 18 15 15 14 13 15 12 13 5 8 13 11 14 15 19 24 24
41 41 41 42 41 41 39 39 35 30 24 23 24 22 24 25 24 22 21 23 26 27 20 18 17 12 11 10 14 11 10 17 13 12 12 11 12 17 17 16 16 17 17 19
39 40 40 41 41 41 40 37 39 32 27 22 25 25 24 24 24 23 25 27 28 28 23 19 15 10 11 7 9 18 17 17 14 11 9 8 25 25 19 19 19 21 20 20
39 39 39 39 41 41 40 37 39 36 30 29 28 25 27 26 25 24 28 26 24 28 23 19 18 15 14 11 9 9 12 18 14 13 14 13 24 24 21 11 22 24 20 20
38 38 38 38 39 40 40 36 38 35 28 29 28 29 28 29 29 25 26 23 24 25 19 20 19 20 20 19 18 18 12 12 15 17 17 13 26 24 22 30 29 21 20 21
38 38 38 38 38 38 40 35 37 38 34 29 31 32 33 33 33 29 29 26 27 28 23 21 23 22 24 23 17 26 20 24 19 19 19 27 30 24 24 24 21 20 20 21
38 37 37 37 38 38 38 38 37 37 33 31 27 29 30 33 33 33 27 28 30 29 32 27 27 23 25 19 20 24 25 31 25 25 29 31 32 31 29 23 22 22 22 23
37 36 36 37 38 38 38 37 37 34 33 26 25 26 26 29 31 32 32 30 31 32 32 28 26 23 24 16 18 17 21 24 23 27 30 30 31 27 24 22 22 23 23 23
37 36 36 36 37 38 37 38 38 37 31 26 26 28 28 29 29 29 30 30 30 29 27 26 24 24 22 18 18 12 17 10 15 19 22 18 19 21 21 21 20 21 21 22
37 36 36 36 37 37 35 32 36 37 35 29 25 27 24 27 29 29 28 31 29 28 27 25 25 26 23 17 13 19 21 15 17 16 17 19 20 19 19 20 20 22 22 24
36 36 36 36 37 36 33 32 35 32 32 29 25 24 23 24 23 29 29 30 27 27 27 25 24 24 24 19 15 19 21 21 19 18 17 18 17 18 19 21 22 23 23 24
35 36 37 37 36 39 33 35 37 33 30 29 25 22 20 26 22 23 31 29 30 29 28 27 23 22 22 16 18 20 21 22 26 28 28 20 20 20 20 23 23 23 24 25
35 37 37 36 35 33 35 36 35 34 31 24 25 19 17 24 24 26 27 28 24 28 26 24 22 18 14 23 24 25 23 22 27 29 29 22 22 21 22 23 23 23 24 25
35 36 33 29 34 31 33 33 30 31 32 31 25 23 21 23 23 23 23 24 23 18 18 21 16 13 28 29 28 29 24 24 23 22 22 22 22 22 23 23 24 24 25 26
34 32 28 31 32 26 28 25 25 26 25 27 26 24 22 26 21 19 21 19 18 13 13 13 11 14 25 29 28 27 24 23 23 22 22 23 22 23 25 25 26 26 26 26
34 32 32 28 27 24 23 22 22 21 18 22 22 23 24 23 24 19 21 18 17 11 18 15 13 24 28 28 27 26 25 26 25 24 23 24 26 28 27 27 27 26 25 25
34 32 28 26 23 20 20 16 16 15 16 16 18 19 21 21 24 22 21 18 15 18 15 15 18 25 27 27 27 27 28 28 28 27 28 28 29 28 27 25 26 27 28 25
31 25 19 20 19 19 19 17 17 18 20 19 19 21 22 24 21 22 20 19 18 14 11 11 24 25 27 28 28 27 28 28 28 28 29 28 26 26 27 27 28 28 28 26
26 21 18 19 20 23 23 23 22 20 19 20 20 21 22 22 20 21 19 15 13 11 9 23 25 25 27 27 28 28 28 28 28 28 28 29 30 30 30 29 30 30 29 29
24 20 19 22 22 23 27 27 24 26 23 25 22 18 16 17 18 16 14 12 8 16 24 27 26 26 27 27 27 28 26 26 26 26 27 27 25 25 26 28 28 29 29 30
20 19 21 21 22 24 29 30 26 28 25 20 19 15 12 17 14 11 13 11 19 26 28 29 28 27 27 26 26 26 26 25 23 24 21 20 21 22 23 25 29 26 27 31

GFSNW_sfc_30mbdewp_231.txt.gz
Dewpoint
40 41 42 42 42 40 36 31 24 32 34 23 22 20 21 23 21 21 20 20 16 15 17 18 17 16 21 21 28 26 30 26 20 20 31 33 33 30 29 23 21 24 23 21
42 41 41 41 41 37 33 28 28 34 31 15 19 22 22 22 20 20 20 18 18 17 17 16 17 20 22 24 23 27 29 21 14 11 24 25 25 27 31 30 28 23 20 21
40 41 40 41 40 39 34 27 21 26 30 26 23 21 20 20 22 21 22 21 21 17 17 18 16 16 20 21 22 25 26 23 17 12 16 25 21 17 22 27 23 24 25 26
40 39 39 40 41 39 33 27 25 26 19 20 22 24 22 20 20 21 23 20 18 19 17 16 15 17 17 19 21 24 23 18 19 15 16 14 14 17 19 28 29 23 27 28
40 42 42 42 41 38 31 26 26 27 25 26 23 21 19 21 23 23 19 20 21 21 18 16 15 17 18 17 21 19 22 16 16 11 9 14 20 20 21 25 30 28 30 29
41 41 41 42 41 37 32 33 33 27 23 23 21 20 22 24 25 24 23 22 22 21 19 23 26 25 22 20 20 19 22 18 14 7 11 12 17 23 20 23 27 27 25 31
42 41 42 42 41 38 35 36 33 26 20 22 21 22 24 25 25 25 24 24 23 24 27 29 24 23 21 20 20 24 20 17 16 11 11 7 25 30 26 24 27 25 26 23
41 41 41 42 42 40 36 38 32 26 22 23 23 24 25 25 25 24 23 24 26 29 26 19 16 13 12 12 17 20 23 18 12 11 10 12 25 28 27 26 25 30 27 23
41 41 41 41 41 41 37 36 36 30 24 20 25 25 25 25 24 23 24 27 29 26 23 19 16 14 16 14 17 20 21 19 13 11 9 10 22 28 30 29 20 31 25 22
39 39 39 39 41 42 37 36 38 31 23 26 26 23 24 28 25 23 25 26 25 25 20 18 18 17 24 18 19 20 19 19 16 16 13 15 26 31 30 19 20 29 28 24
38 38 38 38 38 40 36 34 38 34 29 27 28 29 26 25 27 24 25 20 23 24 19 18 18 20 21 21 22 22 21 18 16 14 14 13 31 28 22 27 30 24 23 23
38 37 37 38 38 38 39 32 36 37 32 27 30 30 30 29 29 29 28 25 25 26 22 19 21 20 21 21 14 23 18 24 22 22 19 28 33 31 31 32 25 24 23 23
37 37 37 37 37 38 37 34 35 35 30 28 25 25 28 34 33 32 28 27 28 28 28 25 24 21 23 18 16 22 21 28 23 26 26 28 30 31 24 24 22 23 24 24
37 36 36 36 37 38 37 34 36 34 30 24 20 28 25 29 34 34 33 30 32 31 30 27 25 22 25 22 19 19 19 22 24 24 26 29 30 31 30 23 23 24 25 25
37 36 36 36 36 37 37 35 35 35 30 22 23 27 29 30 29 30 34 32 30 28 26 25 23 25 24 24 20 16 20 14 17 15 21 24 22 26 23 22 23 24 24 24
37 36 36 36 36 38 33 29 35 37 35 27 17 24 25 26 30 29 30 31 30 28 26 23 25 26 24 20 16 17 21 21 21 16 20 23 23 23 23 22 24 25 25 26
36 35 36 37 37 35 29 26 34 37 33 25 23 20 24 28 28 29 29 31 30 28 26 24 25 23 27 21 17 17 21 24 24 26 21 19 20 19 22 23 24 26 26 26
34 35 36 37 38 37 25 24 33 35 28 29 22 20 23 26 23 22 30 27 28 27 26 26 25 25 24 21 20 22 23 25 25 26 25 21 21 23 23 24 23 24 24 25
34 35 37 36 33 31 33 39 36 33 26 22 24 23 14 25 24 25 26 28 24 28 26 25 25 21 18 19 20 23 25 23 24 27 24 22 22 22 23 23 23 23 24 25
35 35 31 25 32 38 32 29 28 29 27 28 24 25 21 24 23 21 23 23 23 20 22 25 23 19 21 27 26 27 25 26 27 22 21 22 22 23 23 23 24 25 25 25
33 30 29 30 35 27 25 25 25 25 25 27 26 25 18 23 21 20 21 17 20 16 16 18 15 13 21 28 26 27 26 24 24 25 25 25 24 25 25 26 26 26 26 25
30 30 33 30 27 23 23 23 24 24 20 24 24 24 24 22 25 20 21 19 20 15 19 15 11 14 27 27 26 27 28 28 28 29 28 28 27 27 26 26 26 26 26 26
35 31 27 22 21 20 19 16 20 19 21 21 24 23 23 24 23 21 21 18 17 20 14 13 13 20 28 27 27 28 28 28 28 29 29 28 28 29 28 27 26 27 26 27
28 24 17 18 17 18 19 20 18 20 20 19 22 22 21 24 20 20 18 18 20 15 13 13 16 24 27 27 28 28 28 27 25 24 25 25 25 25 27 25 25 26 26 27
26 27 19 19 19 21 21 22 22 22 24 23 22 23 22 21 19 21 18 17 15 15 13 14 23 27 27 27 28 27 27 25 23 25 25 25 24 21 20 23 25 26 25 24
28 27 22 22 22 20 21 22 20 24 25 24 22 19 17 18 20 19 16 15 13 12 18 23 25 27 28 28 28 27 26 25 25 23 22 20 19 19 20 21 22 24 24 24
26 22 24 22 22 20 24 27 27 27 23 18 19 15 14 17 15 16 18 15 13 18 22 26 26 26 27 28 28 27 26 25 23 21 19 19 20 22 22 22 24 25 26 26

GFSNW_sfc_30mbdewp_234.txt.gz
Dewpoint
40 41 41 41 41 42 34 26 26 33 31 20 20 18 21 24 21 22 20 21 20 16 16 16 16 16 17 19 23 20 28 26 18 15 17 30 23 26 25 22 20 23 18 21
41 41 41 41 42 37 31 28 31 33 28 12 18 22 21 22 20 20 20 19 19 19 17 15 16 16 21 20 20 22 27 20 15 10 12 18 17 19 23 29 27 23 17 21
42 41 41 41 41 39 31 24 22 28 27 25 21 20 20 20 22 21 22 21 22 18 18 19 17 16 18 19 19 21 23 21 17 14 16 17 19 25 30 27 23 23 23 24
41 40 41 41 41 39 29 25 23 25 21 21 22 23 22 20 21 22 23 20 19 20 19 18 15 16 18 19 19 21 19 18 18 17 16 16 24 25 25 25 28 24 26 26
40 40 40 40 41 36 29 25 24 25 25 25 21 22 19 21 23 23 19 19 20 22 21 18 18 19 20 19 20 19 21 16 18 14 10 13 21 25 24 24 26 29 30 26
42 42 42 41 40 36 32 32 30 21 23 22 19 20 21 23 25 24 24 23 23 21 21 22 24 25 26 25 23 20 20 21 15 9 12 13 16 24 26 25 27 26 21 26
41 42 42 41 40 36 33 32 28 19 20 21 20 22 23 23 25 24 25 25 23 23 28 28 24 25 25 25 22 23 20 19 17 13 11 9 22 30 30 27 27 28 28 29
42 42 42 41 40 38 35 35 27 23 19 22 22 22 23 24 25 24 24 24 25 29 25 19 16 15 14 15 19 21 23 19 14 10 10 12 20 26 27 26 24 29 26 25
41 41 41 41 40 38 36 35 34 25 16 18 24 23 24 23 25 23 24 27 29 25 21 19 16 15 19 18 20 22 21 18 15 13 10 11 22 27 30 32 18 29 28 22
40 41 41 42 42 39 36 36 36 27 21 24 25 22 23 27 25 23 23 26 24 24 18 16 16 15 22 17 18 20 21 19 15 15 14 16 23 29 29 16 20 28 24 23
38 38 38 39 41 39 35 35 36 30 27 27 28 28 27 26 26 23 24 18 22 24 17 17 17 18 20 19 20 21 21 19 17 16 9 7 26 25 18 23 30 24 23 23
37 37 37 38 38 39 35 34 37 37 29 26 29 30 30 27 27 28 28 24 24 26 19 18 20 18 20 20 13 21 17 23 21 22 16 24 31 32 32 32 25 22 22 24
37 37 37 37 38 39 35 33 35 34 30 27 26 24 28 33 33 32 27 27 28 28 27 24 23 20 22 18 16 19 20 27 23 24 22 24 27 29 24 23 22 24 25 24
36 36 36 36 37 38 36 29 34 32 28 22 17 27 24 28 33 33 32 30 31 30 29 27 24 22 24 22 21 19 18 21 23 21 22 27 26 30 30 23 23 24 25 25
36 36 36 36 36 38 36 35 34 34 28 20 22 26 27 30 33 33 33 32 30 28 26 26 22 25 25 24 22 19 19 16 18 13 18 23 23 26 27 22 22 24 24 24
36 36 36 36 37 36 31 28 34 34 35 27 13 22 25 26 29 29 30 32 30 28 26 23 24 26 24 21 18 16 19 22 19 18 21 23 23 23 23 22 24 25 25 26
36 35 36 37 38 34 28 25 33 37 34 24 18 16 23 27 28 29 29 31 29 28 27 25 24 24 27 23 19 18 20 22 24 26 23 19 21 19 23 23 24 26 26 26
35 35 36 37 38 36 22 25 36 35 28 28 21 20 22 26 23 23 29 27 28 27 26 26 24 25 25 21 22 22 22 24 25 26 23 21 21 22 23 23 23 23 23 25
34 36 37 36 32 28 31 38 36 32 25 20 24 21 12 24 24 25 26 27 25 27 26 25 25 23 20 21 20 20 23 22 23 27 23 22 21 22 23 23 23 23 24 25
35 34 30 27 31 37 34 29 31 30 28 27 23 24 20 24 23 21 22 23 23 20 22 26 24 22 22 22 24 24 26 25 27 23 21 22 22 23 23 23 24 25 25 25
32 30 29 30 34 28 25 24 23 24 24 27 24 24 17 23 18 20 21 17 20 16 17 18 17 15 18 27 27 27 25 25 24 24 25 26 25 24 24 25 26 26 26 25
30 30 32 31 27 23 22 22 23 23 20 24 24 25 24 21 25 21 21 18 20 15 19 16 13 14 25 27 26 27 26 27 28 28 28 28 28 28 27 26 26 26 26 26
35 28 26 22 22 20 18 15 19 21 23 23 25 23 24 25 24 21 21 18 17 20 15 12 14 17 27 26 27 28 28 28 28 29 27 25 26 26 28 27 25 25 26 26
26 22 14 16 16 18 18 18 18 20 20 20 24 23 22 23 20 18 16 18 20 14 13 13 15 19 26 27 28 28 27 27 26 23 24 24 25 22 20 22 24 24 23 23
25 25 17 17 18 20 21 22 22 21 24 22 23 23 23 21 18 21 18 16 15 15 13 14 18 23 27 28 27 27 27 26 23 24 24 23 23 19 19 20 22 24 24 24
26 24 23 22 21 19 20 23 22 23 24 23 22 20 18 18 19 18 16 15 12 12 17 18 24 25 27 27 28 28 27 26 24 24 23 21 19 18 20 22 23 23 25 24
25 24 26 22 22 19 20 22 22 26 23 18 18 15 14 18 17 17 19 16 14 15 17 22 24 24 25 27 28 28 27 26 25 23 21 19 20 22 21 21 23 23 26 25

GFSNW_sfc_30mbdewp_237.txt.gz
Dewpoint
44 42 41 42 43 40 30 30 21 35 29 17 19 18 21 24 21 22 20 22 20 18 17 15 14 14 15 18 21 18 23 24 16 12 15 21 20 24 25 19 19 25 20 20
42 41 42 43 43 36 30 30 32 34 24 9 18 22 21 22 20 20 20 19 20 21 18 16 17 16 19 20 19 19 25 18 12 8 11 19 21 27 28 27 28 23 20 20
42 42 42 44 42 37 29 26 20 27 27 25 21 20 20 19 23 21 22 21 22 19 18 19 18 17 18 20 20 22 21 21 15 11 13 18 21 25 25 24 22 23 22 23
42 41 42 43 41 36 26 24 23 24 20 20 22 21 21 20 20 23 23 20 19 20 18 18 17 16 19 20 21 22 19 17 18 18 16 16 25 24 24 22 24 19 21 21
41 41 42 42 41 34 28 23 22 25 25 24 21 21 20 21 23 23 18 19 20 23 20 19 18 20 20 20 21 21 21 17 18 14 11 14 16 22 23 24 25 23 21 22
40 40 41 42 39 34 31 31 28 22 23 22 18 19 21 23 25 24 24 23 24 21 21 23 24 25 25 24 24 23 21 20 17 10 12 15 14 24 25 24 26 25 19 25
41 42 42 41 40 34 32 31 25 19 20 20 19 22 22 22 24 23 25 26 23 23 28 27 25 25 25 26 25 26 22 21 18 13 11 9 20 25 30 24 25 28 25 28
42 42 42 41 40 37 32 32 25 20 19 21 22 22 22 24 25 24 24 24 25 29 24 19 17 17 16 18 22 22 23 21 17 13 11 11 18 23 26 23 22 26 22 21
42 42 41 41 39 37 34 34 30 23 20 18 23 23 24 22 23 21 23 27 29 26 22 19 15 15 17 15 17 22 22 18 17 17 11 10 19 24 27 32 17 27 22 21
42 42 41 41 40 38 36 36 32 24 20 23 25 19 21 26 25 22 24 26 25 24 18 17 16 14 21 15 17 18 19 20 17 15 15 17 22 26 26 13 19 27 22 23
40 41 41 40 39 38 35 35 36 27 25 26 27 27 26 27 25 22 25 19 23 23 16 17 17 17 20 19 20 20 20 17 17 17 10 10 25 25 21 26 30 23 22 24
38 38 38 39 39 37 35 34 36 35 26 25 30 30 29 26 28 28 28 24 24 26 18 18 20 19 20 20 12 20 16 23 21 19 13 20 28 31 31 30 31 23 23 24
37 37 37 38 38 37 35 35 35 32 26 24 24 22 29 33 31 31 27 28 29 28 28 25 23 20 22 18 18 19 21 28 25 23 17 25 26 29 27 23 22 24 24 24
36 36 37 37 38 37 32 32 33 30 28 14 19 26 26 30 33 32 31 30 31 30 30 27 24 22 24 22 21 20 20 21 22 22 20 21 22 26 30 26 24 24 24 25
36 36 36 37 38 37 34 34 34 33 21 15 18 24 27 31 32 32 32 31 30 30 28 26 23 25 25 24 23 21 20 17 18 15 19 21 21 25 30 27 22 24 25 24
36 36 36 37 39 33 30 25 33 34 33 24 8 22 24 27 31 32 32 32 31 30 28 25 25 26 25 22 20 19 19 22 21 18 22 24 25 26 23 22 24 24 25 25
36 36 36 38 36 30 26 25 32 36 32 23 10 14 23 27 29 30 30 32 30 29 28 27 25 25 27 24 18 18 19 21 23 24 26 20 22 21 23 24 24 26 25 25
36 37 38 39 38 31 21 29 38 33 29 27 17 17 21 26 25 25 30 29 29 28 28 26 25 25 26 23 23 23 22 22 25 26 25 23 22 22 23 24 24 23 23 24
36 37 39 33 30 29 33 37 36 31 25 19 24 18 14 25 25 25 27 28 26 28 26 26 26 24 22 22 21 22 22 23 23 27 24 22 22 22 23 23 24 23 24 25
38 33 27 28 33 36 35 31 30 31 30 27 23 24 21 24 24 23 24 24 24 21 23 27 25 23 24 23 24 23 23 25 26 25 23 23 23 23 24 24 24 24 26 26
31 29 28 32 35 28 26 23 22 22 21 26 25 23 18 23 22 21 22 18 20 17 19 20 18 19 20 26 26 27 26 26 27 24 25 26 26 26 26 26 27 27 27 26
31 29 32 32 27 23 21 20 23 21 18 24 24 25 24 21 25 22 22 19 20 15 20 17 15 16 19 28 27 27 26 27 27 28 28 29 28 28 28 28 27 26 26 26
32 27 24 23 22 19 16 13 16 20 23 25 25 24 24 25 25 22 21 18 17 21 17 14 15 17 23 28 27 28 28 29 29 29 27 24 25 25 25 24 24 25 23 23
24 19 13 12 15 18 18 17 18 22 22 24 25 24 22 23 22 19 16 18 20 14 14 12 16 18 20 28 28 28 28 28 28 26 24 24 25 24 21 21 22 23 24 24
24 22 6 15 17 19 21 22 22 22 23 23 23 23 23 21 18 21 19 16 14 15 11 16 17 21 23 28 28 28 28 28 27 24 24 24 24 21 19 21 23 24 24 24
25 24 21 23 21 19 20 23 21 24 24 24 23 21 19 18 19 18 15 13 11 11 18 19 21 24 26 28 28 28 28 28 27 25 25 24 20 18 20 22 23 23 25 24
23 22 26 23 22 20 20 21 22 25 23 20 20 16 15 20 18 18 19 16 14 16 18 20 23 23 24 26 28 28 28 28 27 25 24 21 21 22 21 19 22 24 25 25

GFSNW_sfc_30mbdewp_240.txt.gz
Dewpoint
43 43 43 43 44 41 34 29 26 37 33 23 30 21 16 17 16 19 18 17 16 14 14 14 11 10 10 14 17 17 20 24 15 9 15 19 20 25 27 20 20 26 18 18
44 43 41 42 43 37 32 30 25 35 30 21 22 18 19 17 17 16 16 15 17 17 16 16 13 14 16 18 18 21 24 18 10 7 11 15 23 27 27 26 28 23 15 18
41 39 39 43 42 35 31 32 23 22 26 19 15 13 13 16 21 18 18 16 19 17 15 16 17 14 16 19 19 23 21 20 17 13 15 20 24 24 25 22 19 20 21 21
40 40 42 43 39 33 29 34 25 20 20 22 16 16 13 13 13 19 20 17 16 19 18 14 12 14 19 18 21 22 21 20 16 16 13 17 24 23 23 23 23 18 21 21
41 43 43 42 38 33 31 30 26 22 16 18 17 21 16 13 18 16 14 14 17 21 21 20 20 22 18 18 20 21 22 18 17 15 11 15 22 21 21 21 23 24 21 22
43 44 43 41 38 33 32 32 30 27 20 17 14 16 17 16 19 22 19 20 21 22 20 22 23 24 24 23 23 22 21 19 15 9 11 12 14 23 23 21 22 21 17 24
43 43 43 41 38 34 31 29 27 29 20 17 15 17 19 19 20 18 21 23 20 23 27 26 25 24 23 23 23 25 24 21 17 13 9 8 22 26 27 23 23 22 20 18
43 43 41 41 39 36 30 33 31 30 18 16 18 19 19 21 23 21 20 23 26 29 25 19 13 12 13 17 19 20 22 21 18 13 7 12 14 25 27 21 20 20 16 15
43 42 41 42 39 36 31 33 32 35 26 18 18 21 20 18 18 20 21 27 29 26 22 21 13 9 14 9 13 20 22 22 18 16 7 7 14 20 25 32 16 21 17 15
42 42 41 40 39 37 32 34 36 28 26 21 22 20 20 24 22 20 23 25 25 25 21 18 14 11 19 11 12 13 14 17 14 15 14 12 15 19 20 12 18 21 19 17
42 42 41 40 39 38 32 35 37 28 27 25 26 27 24 25 25 19 27 24 27 24 23 21 20 17 21 20 18 16 17 17 12 12 8 6 18 15 17 24 26 21 20 19
41 41 40 40 39 37 34 31 36 33 28 24 31 31 29 27 29 28 30 26 29 30 25 25 22 20 23 22 10 19 15 19 17 17 13 18 22 24 25 25 24 22 22 20
39 39 39 39 38 37 35 32 34 31 27 24 24 25 31 32 30 32 26 29 31 32 30 27 25 22 21 15 15 19 16 23 22 25 15 18 18 22 24 24 25 22 22 21
39 38 38 38 38 37 34 29 34 27 20 18 21 28 29 33 32 32 33 32 33 33 32 27 23 18 22 16 18 17 14 20 14 14 16 16 17 18 22 24 27 23 23 22
37 37 38 36 37 37 35 35 35 33 24 24 21 27 28 31 30 30 33 32 31 29 27 25 22 22 22 20 22 17 16 14 13 13 16 19 18 20 25 27 23 22 23 22
36 37 38 36 35 31 22 27 29 35 32 22 17 24 27 31 32 31 32 32 32 29 26 23 22 26 24 17 13 15 16 18 17 15 21 22 23 23 24 22 22 23 24 24
36 36 37 35 33 30 27 23 26 36 33 23 15 18 25 29 30 31 31 33 31 29 27 25 22 22 25 18 15 13 16 17 17 22 23 21 18 18 21 22 22 24 24 24
37 37 38 37 35 34 31 35 37 34 25 22 15 20 22 29 28 28 31 31 31 30 25 27 24 23 25 20 17 18 18 19 20 22 24 23 21 21 21 23 23 23 22 23
37 38 37 31 32 31 33 35 36 35 28 23 19 16 22 27 27 28 30 31 25 29 25 23 24 21 20 20 18 17 18 21 21 23 24 22 22 21 21 22 22 22 22 24
38 34 30 32 33 38 37 31 31 30 29 26 17 22 23 24 26 26 26 28 22 19 21 26 23 19 18 18 19 21 23 23 24 24 23 23 22 22 24 24 24 24 24 25
32 32 31 33 37 31 27 27 23 22 20 22 21 21 21 26 21 22 24 22 20 15 18 17 14 16 20 23 29 26 25 26 26 25 25 25 26 26 23 22 23 23 23 22
32 33 35 34 29 24 19 20 20 18 17 22 19 17 17 22 26 21 24 18 19 13 20 19 15 16 19 24 28 27 26 26 26 26 26 29 26 24 22 21 21 21 22 23
32 28 26 24 24 20 15 15 16 20 21 23 24 20 19 22 26 26 22 20 18 20 19 16 15 19 18 26 27 28 27 28 28 28 29 25 23 24 22 21 23 22 21 26
25 21 20 19 19 17 16 11 17 22 23 24 22 25 26 27 26 25 22 19 19 15 14 11 18 14 20 24 29 28 28 29 29 29 27 24 25 25 24 22 23 24 25 26
21 20 10 13 14 20 21 22 22 23 25 26 26 25 25 24 23 22 19 18 15 13 11 19 17 21 22 25 28 28 29 30 30 29 27 27 26 26 23 24 25 23 26 26
23 21 20 22 20 22 25 23 24 25 26 27 25 24 24 21 20 19 18 11 11 15 17 20 22 22 24 26 30 30 30 30 30 29 28 27 26 23 21 23 22 25 27 26
20 20 24 24 23 24 24 23 23 25 25 25 23 22 19 23 19 19 17 17 20 20 23 24 24 24 25 28 29 31 31 30 30 30 28 26 25 22 21 19 19 23 23 26

GFSNW_sfc_30mbdewp_243.txt.gz
Dewpoint
43 43 43 42 40 40 39 34 30 37 36 26 33 23 11 11 11 15 16 13 12 11 14 8 9 8 9 15 17 17 20 26 19 18 16 18 26 27 27 22 22 18 14 18
41 42 42 41 42 39 37 34 27 33 35 26 25 15 12 11 12 13 15 14 14 15 15 14 10 13 15 18 19 22 23 20 12 8 13 19 25 25 27 28 27 18 13 18
42 43 42 43 41 37 33 29 23 18 23 22 17 13 12 12 14 14 15 15 17 15 12 14 16 9 16 20 21 23 24 24 21 15 17 25 23 24 23 24 20 18 20 21
41 42 43 42 40 40 34 34 26 20 24 20 14 15 11 14 14 15 15 16 16 16 18 12 10 14 17 18 19 19 19 21 15 12 15 19 20 24 23 21 23 18 21 21
43 43 44 43 40 36 30 33 22 22 19 16 15 17 10 10 10 14 14 15 16 21 22 21 22 21 17 15 17 17 18 15 13 8 18 17 17 19 21 22 23 18 18 17
42 44 44 41 39 36 32 28 21 25 18 16 19 17 10 10 15 15 15 16 21 21 20 20 21 22 22 21 21 20 20 18 12 7 7 13 17 23 21 22 22 21 15 20
41 41 42 41 38 37 30 29 30 28 19 15 14 14 13 14 15 16 18 21 21 22 25 24 22 22 20 20 20 21 19 18 16 11 9 13 24 29 23 20 18 16 12 11
41 41 42 40 35 32 29 29 33 30 19 15 13 14 15 17 21 18 20 21 23 27 25 19 14 15 16 14 16 18 18 17 18 12 6 16 12 21 26 20 17 15 11 9
42 42 40 38 34 31 28 32 31 34 27 15 15 16 18 15 18 20 21 25 27 28 21 21 14 3 10 8 10 14 18 17 18 16 5 4 10 12 23 25 22 18 15 11
43 41 40 39 35 32 26 33 36 31 28 16 17 17 17 18 18 19 22 23 26 26 22 17 11 8 13 7 6 8 10 14 12 15 15 13 10 11 14 19 19 22 16 16
42 41 41 39 36 34 25 34 38 31 25 20 24 23 22 20 21 21 25 23 26 23 27 21 17 14 19 17 11 8 13 14 11 11 9 8 14 13 15 19 19 20 17 17
42 41 41 39 37 34 29 29 31 29 26 25 28 32 31 28 24 26 27 28 27 32 28 28 21 17 21 16 7 16 11 14 14 12 16 18 16 16 18 19 18 18 18 19
41 41 40 38 35 32 31 28 33 28 29 24 23 25 31 30 31 34 24 28 28 29 30 29 25 19 17 13 12 15 10 16 17 19 16 13 15 17 17 16 18 19 19 20
40 41 41 40 38 33 30 28 28 22 17 18 25 29 28 31 31 31 31 32 31 30 27 25 20 14 18 10 13 14 11 15 14 11 12 15 14 17 19 19 20 21 20 21
39 39 39 38 35 32 31 31 31 30 25 24 19 25 29 31 30 30 31 30 28 25 25 24 20 19 20 16 17 16 12 11 11 11 14 15 16 19 19 20 19 19 21 21
38 37 39 38 35 32 20 33 28 31 24 21 16 27 27 29 28 30 30 29 28 25 22 20 20 24 22 14 11 12 13 14 13 11 15 19 20 21 19 18 18 20 21 21
37 35 34 31 33 28 24 25 28 33 29 23 18 21 26 27 28 27 28 30 27 25 23 22 20 19 23 20 16 14 13 13 15 15 17 17 18 16 16 19 19 21 20 20
36 36 37 37 36 36 31 34 33 34 20 19 16 21 23 28 24 26 27 26 25 25 22 21 21 19 22 19 17 14 13 15 15 16 17 20 20 18 16 19 19 19 18 19
37 34 33 31 30 31 31 36 36 32 28 24 18 18 20 27 25 27 26 26 23 26 23 20 20 20 20 21 18 16 14 15 16 17 18 19 20 18 18 19 20 20 21 20
36 34 28 33 32 36 35 27 32 30 27 24 19 22 24 23 25 24 25 25 21 20 21 22 20 18 19 18 17 18 18 18 18 19 19 21 21 19 22 21 21 21 20 20
32 30 31 33 37 29 27 28 27 23 22 21 18 21 20 26 22 23 23 22 19 15 18 16 15 15 20 20 24 23 23 21 20 21 23 24 23 23 21 21 20 19 18 17
32 32 31 29 27 24 21 20 19 18 15 18 18 21 23 26 26 22 21 16 17 13 20 17 17 17 17 19 25 24 25 24 24 24 24 25 26 23 22 20 20 20 20 22
30 28 26 24 24 22 19 18 15 19 19 20 16 19 20 22 22 22 19 19 18 19 18 18 18 19 15 19 23 24 25 26 25 25 25 27 25 24 24 21 23 22 20 26
23 23 22 22 22 18 14 10 16 21 22 22 19 19 20 24 22 25 22 18 18 16 16 15 18 16 16 18 25 25 27 28 27 26 27 28 26 27 27 25 25 23 25 28
18 18 15 14 14 19 20 23 23 22 22 20 21 24 24 23 25 21 19 17 16 14 14 21 16 17 16 19 24 26 27 29 30 30 29 30 28 28 27 28 26 23 27 27
18 17 16 19 17 25 26 24 24 24 24 25 23 22 22 21 19 18 18 13 12 18 16 20 19 18 19 20 24 27 29 29 30 30 30 31 30 27 26 26 25 26 27 27
16 18 21 24 23 26 26 25 25 25 26 26 22 24 21 20 18 18 17 17 20 20 21 20 19 19 19 24 28 31 33 32 31 30 30 30 30 30 26 24 23 25 23 27

GFSNW_sfc_30mbdewp_246.txt.gz
Dewpoint
46 44 43 41 39 38 36 35 30 39 39 30 35 29 13 9 9 14 11 14 13 10 9 6 8 7 9 17 18 17 20 27 20 19 21 22 23 23 27 24 17 16 13 17
45 43 42 40 39 36 38 35 33 36 40 28 29 22 11 10 11 13 14 12 12 12 14 11 8 12 17 19 19 20 23 20 15 11 18 21 22 21 23 25 23 18 12 18
43 42 40 39 38 40 39 33 27 31 35 34 20 13 10 9 13 14 15 12 13 13 11 13 13 8 15 19 19 23 25 25 23 15 22 22 22 24 23 21 19 17 19 19
42 41 40 39 39 41 41 35 28 23 24 28 22 17 12 11 12 14 14 14 14 14 14 11 10 10 15 18 17 22 22 21 17 14 18 18 19 21 23 22 23 18 21 14
41 40 39 39 43 39 36 34 23 19 21 24 20 20 16 13 13 15 13 15 15 21 19 21 19 19 15 14 16 15 17 14 13 13 16 16 17 18 20 21 21 22 20 16
41 41 39 43 42 36 36 37 27 29 24 21 20 18 15 11 14 16 14 13 16 19 16 17 18 20 21 20 19 19 19 17 14 11 11 18 19 23 19 20 22 17 13 15
41 42 42 42 43 35 35 33 31 29 20 20 20 14 11 12 17 14 16 19 19 22 23 23 21 21 20 19 19 19 18 16 16 14 17 15 22 25 22 20 16 14 11 9
44 42 42 43 40 38 35 34 34 36 22 20 17 13 12 15 18 17 18 22 26 26 22 23 17 18 18 17 14 15 16 17 16 13 13 16 10 19 24 21 23 16 12 12
43 43 43 40 40 37 37 36 36 36 26 19 16 16 16 20 18 19 21 24 26 29 27 23 17 6 7 6 12 9 13 16 19 15 11 5 7 7 10 22 23 23 14 13
43 42 41 41 36 34 36 39 40 33 27 18 19 18 22 20 22 21 22 24 27 29 27 23 11 7 9 10 4 5 8 10 14 13 13 13 11 10 12 16 17 18 15 15
43 43 41 36 34 32 37 38 42 32 26 20 18 20 19 20 20 23 24 24 27 26 28 25 15 18 18 9 10 3 8 8 13 11 12 9 14 13 13 16 17 16 16 15
42 41 39 35 34 31 34 32 33 32 27 28 33 33 32 30 22 25 27 30 30 36 31 31 21 14 21 14 8 18 10 18 13 13 19 19 18 15 14 18 18 20 19 17
41 40 38 37 34 31 32 34 36 33 32 30 28 27 31 33 34 34 25 24 28 29 33 31 27 19 18 15 15 15 12 11 15 16 15 15 13 15 22 17 15 18 18 17
40 39 38 35 33 33 34 32 33 30 23 25 29 29 28 31 30 31 32 30 28 29 26 25 21 17 17 12 13 13 13 13 15 13 13 18 20 20 19 17 17 18 18 17
39 37 36 34 31 32 34 33 31 29 26 28 25 26 29 29 29 29 30 30 28 24 23 22 19 18 19 18 16 15 15 12 14 15 14 18 16 18 18 17 17 16 17 19
39 40 38 36 35 34 29 35 28 29 27 21 18 27 27 28 29 29 29 29 29 24 21 20 19 22 22 13 12 14 12 13 13 12 12 15 18 18 18 18 16 17 20 19
36 32 32 31 31 31 26 24 28 32 32 24 21 22 24 26 26 28 27 28 27 25 24 22 21 20 24 21 19 19 17 14 13 14 14 14 16 19 17 16 17 18 18 19
34 37 35 34 33 34 30 32 33 36 21 20 19 23 23 25 24 24 26 26 25 24 23 21 20 21 22 20 19 15 12 12 13 15 15 15 16 18 15 16 17 18 19 20
36 37 36 33 29 31 27 34 36 32 29 24 21 22 21 24 23 25 25 26 24 24 23 23 21 20 19 22 20 18 17 15 16 15 16 16 18 18 16 18 20 20 21 18
35 32 31 34 31 32 33 23 33 31 24 23 21 22 26 22 26 27 24 24 22 23 23 22 21 21 21 20 20 19 19 18 18 17 17 18 21 21 20 21 21 21 19 18
35 31 30 31 36 33 28 29 24 23 22 20 21 23 23 25 24 24 26 24 22 17 18 19 18 17 22 21 23 20 19 20 19 18 20 24 23 23 22 22 20 20 19 18
31 30 29 30 28 25 23 22 21 17 14 18 17 22 22 24 27 24 22 19 18 16 22 18 18 19 19 19 22 19 21 21 20 21 22 23 25 24 22 21 20 21 22 22
31 28 26 26 25 24 21 18 17 19 20 19 21 24 25 27 25 24 20 19 19 19 20 19 20 21 17 17 20 21 22 24 23 23 23 25 26 24 25 23 25 24 22 25
23 24 20 23 22 20 16 13 16 23 23 22 24 23 20 23 22 25 22 20 19 18 17 17 22 20 18 17 22 22 24 26 26 24 24 26 29 28 27 26 26 22 21 26
19 18 18 16 20 20 22 25 24 23 24 23 23 24 24 22 25 23 21 19 16 15 15 24 21 17 17 18 21 23 25 30 30 30 29 30 29 29 28 28 27 25 27 26
17 15 17 19 21 27 28 25 24 23 25 25 24 22 23 22 21 18 19 16 14 19 19 26 20 18 18 19 22 25 26 28 30 31 31 31 32 29 30 31 29 27 27 25
15 18 22 23 24 29 29 28 25 25 27 25 24 23 21 20 18 18 18 17 22 26 26 25 19 19 19 22 26 30 32 33 32 31 30 30 32 34 32 29 29 28 27 27